Flag for U.S.A. Weather past 2 weeks in Wichita, Kansas, U.S.A.

Now
23 °F

Ice fog.


Feels Like: 23 °F
Forecast: 17 / 31 °F
Wind: No wind

Location: Wichita Mid-Continent Airport

Current Time: Mar 1, 2015 at 6:11:34 AM

Latest Report: Mar 1, 2015 at 4:53 AM


Visibility: 0 mi

Pressure: 30.37 "Hg

Humidity: 92%

Dew point: 21 °F

Location of WichitaLocation

Historic Weather in Wichita — Graph

°F

Wichita temperature yesterday

Maximum temperature yesterday: 23 °F (at 4:53 PM)
Minimum temperature yesterday: 16 °F (at 12:53 AM)
Average temperature yesterday: 20 °F

Past Weeks' High & Low Weather Summary

 TemperatureHumidityPressure
High60 °F (Feb 14, 11:53 AM)100% (Feb 20, 11:53 PM)30.78 "Hg (Feb 20, 11:53 PM)
Low11 °F (Feb 27, 3:53 AM)21% (Feb 18, 3:53 PM)29.74 "Hg (Feb 25, 2:53 PM)
Average27 °F60%30.27 "Hg
* Reported Feb 14 4:53 AM — Mar 1 4:53 AM, Wichita, Weather by CustomWeather, © 2015

Note: Actual official high and low records may vary slightly from our data, if they occured in-between our weather recording intervals... More about our weather records

Advertising

Wichita weather history for previous 24 hours

 ConditionsComfort  
Time TempWeatherWind HumidityBarometerVisibility
4:53 AM
Sun, Mar 1
23 °FIce fog.No wind92%30.37 "Hg0 mi
3:53 AM23 °FIce fog.No wind92%30.36 "Hg0 mi
2:53 AM23 °FIce fog.No wind88%30.37 "Hg0 mi
1:53 AM22 °FIce fog.No wind96%30.39 "Hg1 mi
12:53 AM22 °FIce fog.5 mph92%30.38 "Hg5 mi
11:53 PM
Sat, Feb 28
23 °FLow clouds.3 mph85%30.38 "Hg10 mi
10:53 PM23 °FLow clouds.3 mph81%30.40 "Hg10 mi
10:02 PM23 °FLow clouds.6 mph81%30.34 "Hg10 mi
9:53 PM23 °FOvercast.5 mph81%30.38 "Hg6 mi
8:53 PM23 °FOvercast.6 mph81%30.37 "Hg10 mi
7:53 PM23 °FMostly cloudy.6 mph81%30.38 "Hg10 mi
6:53 PM23 °FMostly cloudy.5 mph81%30.37 "Hg10 mi
5:53 PM23 °FOvercast.5 mph78%30.36 "Hg2 mi
4:53 PM23 °FOvercast.5 mph74%30.37 "Hg10 mi
4:03 PM22 °FOvercast.6 mph78%30.31 "Hg2 mi
3:53 PM22 °FOvercast.6 mph78%30.37 "Hg10 mi
2:53 PM22 °FOvercast.6 mph78%30.39 "Hg10 mi
1:53 PM21 °FMore clouds than sun.9 mph81%30.41 "Hg10 mi
12:59 PM21 °FLight snow. Ice fog.8 mph85%30.38 "Hg1 mi
11:53 AM20 °FSnow. Ice fog.8 mph85%30.47 "Hg1 mi
11:04 AM19 °FHeavy snow. Ice fog.9 mph85%30.41 "Hg0 mi
10:53 AM19 °FSnow. Ice fog.8 mph85%30.47 "Hg1 mi
9:53 AM18 °FSnow. Ice fog.8 mph84%30.48 "Hg1 mi
8:53 AM17 °FSnow. Ice fog.8 mph88%30.47 "Hg0 mi
7:53 AM17 °FSnow. Ice fog.6 mph83%30.47 "Hg1 mi
7:02 AM17 °FLight snow. Ice fog.7 mph83%30.42 "Hg1 mi
6:53 AM17 °FLight snow. Ice fog.7 mph83%30.48 "Hg1 mi
Weather by CustomWeather, © 2015

See weather overviewHow to use our weather pages